Bear River@Wheatland

Start Stop
DateFlow
CFS
Gauge
Feet
DateFlow
CFS
Gauge
Feet
09/21/2021 18:459-0.24
09/21/2021 17:458-0.25
09/21/2021 16:458-0.25
09/21/2021 15:458-0.25
09/21/2021 14:458-0.25
09/21/2021 13:458-0.25
09/21/2021 12:458-0.25
09/21/2021 11:458-0.25
09/21/2021 10:458-0.25
09/21/2021 09:458-0.25
09/21/2021 08:458-0.25
09/21/2021 07:458-0.25
09/21/2021 06:458-0.25
09/21/2021 05:458-0.25
09/21/2021 04:458-0.25
09/21/2021 03:458-0.25
09/21/2021 02:458-0.25
09/21/2021 01:458-0.25
09/21/2021 00:459-0.24
09/20/2021 23:45 -0.24
09/20/2021 22:45 -0.23
09/20/2021 21:459-0.23
09/20/2021 20:4510-0.22
09/20/2021 19:4510-0.22
09/20/2021 18:459-0.23
09/20/2021 17:4510-0.22
09/20/2021 16:4510-0.22
09/20/2021 15:459-0.23
09/20/2021 14:459-0.23
09/20/2021 12:4510-0.21
09/20/2021 11:4512-0.19
09/20/2021 10:4513-0.17
09/20/2021 09:4514-0.16
09/20/2021 07:45 -0.16
09/20/2021 06:45 -0.15
09/20/2021 05:45 -0.16
09/20/2021 03:4514-0.16
09/20/2021 02:4513-0.17
09/19/2021 22:4513-0.17
09/19/2021 21:4512-0.18
09/19/2021 20:4512-0.18
09/19/2021 19:4513-0.17
09/19/2021 16:4513-0.17
09/19/2021 15:4514-0.16
09/19/2021 12:45 -0.16
09/19/2021 11:4514-0.15
09/19/2021 10:4515-0.14
09/19/2021 09:4512-0.18
09/19/2021 08:4511-0.2
09/19/2021 07:4510-0.21
09/18/2021 21:4510-0.21
09/18/2021 20:4511-0.2
09/18/2021 19:4510-0.21
09/18/2021 18:4511-0.2
09/18/2021 09:4511-0.2
09/18/2021 08:4510-0.21
09/18/2021 00:4510-0.21
09/17/2021 23:4511-0.2
09/17/2021 21:4512-0.19
09/17/2021 19:4512-0.19
09/17/2021 18:4511-0.2
09/17/2021 16:4511-0.2
09/17/2021 15:4510-0.21
09/17/2021 14:45 -0.22
09/17/2021 13:4510-0.21
09/17/2021 12:4511-0.2
09/17/2021 11:4510-0.21
09/17/2021 09:45 -0.21
09/17/2021 08:4510-0.22
09/17/2021 07:459-0.23
09/17/2021 05:459-0.23
09/17/2021 04:4510-0.22
09/16/2021 18:4510-0.22
09/16/2021 17:459-0.23
09/16/2021 12:45 -0.23
09/16/2021 11:45 -0.24
09/16/2021 10:459-0.24
09/16/2021 09:458-0.25
09/16/2021 08:459-0.24
09/16/2021 05:45 -0.24
09/16/2021 04:45 -0.23
09/16/2021 03:45 -0.23
09/16/2021 02:45 -0.24
09/16/2021 00:45 -0.24
09/15/2021 23:45 -0.23
09/15/2021 22:459-0.23
09/15/2021 21:4510-0.22
09/15/2021 20:45 -0.22
09/15/2021 19:45 -0.21
09/15/2021 18:45 -0.22
09/15/2021 12:45 -0.22
09/15/2021 11:45 -0.21
09/15/2021 10:4510-0.21
09/15/2021 09:4511-0.2
09/15/2021 08:4511-0.2
09/15/2021 07:4510-0.21
09/15/2021 05:4510-0.21
09/15/2021 04:4511-0.2
09/15/2021 03:4511-0.2
09/15/2021 02:4510-0.21
09/15/2021 01:4511-0.2
09/15/2021 00:4511-0.2
09/14/2021 23:4510-0.21
09/14/2021 21:4510-0.21
09/14/2021 20:4511-0.2
09/14/2021 15:4511-0.2
09/14/2021 14:4512-0.19
09/14/2021 12:4512-0.19
09/14/2021 11:4511-0.2
09/14/2021 10:4511-0.2
09/14/2021 09:4510-0.21
09/14/2021 08:45 -0.21
09/14/2021 07:45 -0.22
09/14/2021 06:45 -0.21
09/14/2021 02:4510-0.21
09/14/2021 01:4511-0.2
09/14/2021 00:4510-0.21
09/13/2021 23:4511-0.2
09/13/2021 22:4511-0.2
09/13/2021 21:4512-0.19
09/13/2021 19:45 -0.19
09/13/2021 18:4512-0.18
09/13/2021 17:4513-0.17
09/13/2021 16:4514-0.16
09/13/2021 15:45 -0.15
09/13/2021 14:4514-0.15
09/13/2021 13:4515-0.14
09/13/2021 12:4514-0.16
09/13/2021 11:4513-0.17
09/13/2021 05:4513-0.17
09/13/2021 04:4512-0.18
09/13/2021 03:4513-0.17
09/12/2021 10:4513-0.17
09/12/2021 09:4512-0.18
09/12/2021 07:4512-0.18
09/12/2021 06:4513-0.17
09/12/2021 05:4512-0.18
09/12/2021 04:4512-0.18
09/12/2021 03:4513-0.17
09/12/2021 02:4512-0.18
09/12/2021 01:45 -0.18
09/12/2021 00:45 -0.19
09/11/2021 16:45 -0.19
09/11/2021 15:4512-0.18
09/11/2021 14:4513-0.17
09/11/2021 13:4513-0.17
09/11/2021 12:4514-0.16
09/11/2021 11:45 -0.15
09/11/2021 10:45 -0.15
09/11/2021 09:4514-0.16
09/11/2021 08:4513-0.17
09/11/2021 01:4513-0.17
09/11/2021 00:4514-0.16
09/10/2021 19:45 -0.16
09/10/2021 18:45 -0.15
09/10/2021 17:4514-0.15
09/10/2021 16:4515-0.14
09/10/2021 15:4515-0.13
09/10/2021 14:4516-0.12
09/10/2021 13:4516-0.12
09/10/2021 12:4515-0.14
09/10/2021 11:4515-0.13
09/10/2021 10:4517-0.11
09/10/2021 09:4518-0.1
09/10/2021 08:4516-0.12
09/10/2021 07:4515-0.14
09/10/2021 06:4515-0.14
09/10/2021 05:4514-0.15
09/09/2021 23:4514-0.15
09/09/2021 22:4515-0.14
09/09/2021 20:4515-0.14
09/09/2021 19:4514-0.15
09/09/2021 18:45 -0.15
09/09/2021 17:4514-0.16
09/09/2021 16:4512-0.18
09/09/2021 15:4512-0.19
09/09/2021 14:4511-0.2
09/09/2021 13:4510-0.21
09/09/2021 12:4511-0.2
09/09/2021 11:4511-0.2
09/09/2021 10:4512-0.19
09/09/2021 08:4512-0.19
09/09/2021 07:4511-0.2
09/09/2021 05:4511-0.2
09/09/2021 04:4510-0.21
09/09/2021 01:4510-0.21
09/09/2021 00:4511-0.2
09/08/2021 17:4511-0.2
09/08/2021 16:4510-0.21
09/08/2021 15:4511-0.2
09/08/2021 14:4512-0.19
09/08/2021 13:4513-0.17
09/08/2021 12:4514-0.16
09/08/2021 11:4514-0.16
09/08/2021 10:4512-0.19
09/08/2021 09:4510-0.22
09/08/2021 07:45 -0.22
09/08/2021 06:45 -0.21
09/08/2021 05:4510-0.21
09/08/2021 04:4511-0.2
09/08/2021 03:4512-0.19
09/08/2021 02:45 -0.19
09/08/2021 01:4512-0.18
09/08/2021 00:4513-0.17
09/07/2021 23:4514-0.16
09/07/2021 22:4514-0.16
09/07/2021 21:4515-0.14
09/07/2021 20:4516-0.12
09/07/2021 19:4517-0.11
09/07/2021 18:4518-0.1
09/07/2021 17:4518-0.09
09/07/2021 16:4519-0.08
09/07/2021 15:4519-0.08
09/07/2021 14:4520-0.07
09/07/2021 12:4520-0.07
09/07/2021 11:4519-0.08
09/06/2021 23:4519-0.08
09/06/2021 22:4520-0.07
09/06/2021 20:4520-0.07
09/06/2021 16:4521-0.06
09/06/2021 15:45 -0.05
09/06/2021 14:45 -0.06
09/06/2021 11:4521-0.06
09/06/2021 10:4520-0.07
09/06/2021 08:4520-0.07
09/06/2021 07:4519-0.08
09/05/2021 23:4519-0.08
09/05/2021 22:4520-0.07
09/05/2021 21:4520-0.07
09/05/2021 20:4521-0.06
09/05/2021 17:45 -0.06
09/05/2021 16:4521-0.05
09/05/2021 15:4522-0.04
09/05/2021 14:4523-0.03
09/05/2021 13:4524-0.02
09/05/2021 12:45 -0.01
09/05/2021 11:45 -0.01
09/05/2021 10:4524-0.02
09/05/2021 09:4521-0.05
09/05/2021 08:4521-0.06
09/05/2021 07:4520-0.07
09/05/2021 05:4520-0.07
09/05/2021 04:4521-0.06
09/04/2021 23:45 -0.06
09/04/2021 22:45 -0.05
09/04/2021 19:4521-0.05
09/04/2021 18:4522-0.04
09/04/2021 15:4522-0.04
09/04/2021 14:4523-0.03
09/04/2021 10:4523-0.03
09/04/2021 09:4521-0.05
09/04/2021 08:4521-0.06
09/04/2021 07:4520-0.07
09/04/2021 04:4520-0.07
09/04/2021 03:4519-0.08
09/04/2021 02:4520-0.07
09/04/2021 01:4519-0.08
09/04/2021 00:4520-0.07
09/03/2021 21:4520-0.07
09/03/2021 20:4521-0.06
09/03/2021 19:45 -0.06
09/03/2021 18:4521-0.05
09/03/2021 17:4522-0.04
09/03/2021 16:4524-0.02
09/03/2021 15:4524-0.02
09/03/2021 14:45250
09/03/2021 12:45250
09/03/2021 11:45260.01
09/03/2021 10:45280.03
09/03/2021 09:45280.03
09/03/2021 08:45250
09/03/2021 07:4524-0.01
09/03/2021 06:45 -0.01
09/03/2021 05:45 -0.02
09/03/2021 04:45 -0.01
09/03/2021 03:45 -0.02
09/03/2021 01:4524 
09/03/2021 00:45 -0.02
09/02/2021 23:45 -0.01
09/02/2021 12:45 -0.01
09/02/2021 11:45 -0.02
09/02/2021 02:4524-0.02
09/02/2021 01:4523-0.03
09/01/2021 21:4523-0.03
09/01/2021 20:4524-0.02
09/01/2021 18:45 -0.02
09/01/2021 17:45 -0.01
09/01/2021 16:45 -0.02
09/01/2021 12:45 -0.02
09/01/2021 11:45 -0.01
09/01/2021 10:45 -0.02
09/01/2021 09:45 -0.01
09/01/2021 08:4524-0.01
09/01/2021 07:4523-0.03
09/01/2021 06:4523-0.03
09/01/2021 05:4524-0.02
09/01/2021 02:4524-0.02
09/01/2021 01:4523-0.03
08/31/2021 22:4523-0.03
08/31/2021 21:4524-0.02
08/31/2021 17:4524-0.02
08/31/2021 16:4523-0.03
08/31/2021 13:4523-0.03
08/31/2021 12:4522-0.04
08/31/2021 11:4523-0.03
08/31/2021 10:4523-0.03
08/31/2021 09:4524-0.02
08/31/2021 08:4522-0.04
08/31/2021 07:4521-0.05
08/31/2021 06:4521-0.05
08/31/2021 05:4522-0.04
08/31/2021 04:4521-0.05
08/31/2021 03:45 -0.05
08/31/2021 02:45 -0.06
08/30/2021 23:45 -0.06
08/30/2021 22:45 -0.05
08/30/2021 21:4521-0.05
08/30/2021 20:4522-0.04
08/30/2021 14:4522-0.04
08/30/2021 13:4521-0.05
08/30/2021 09:4521-0.05
08/30/2021 08:4520-0.07
08/30/2021 07:4519-0.08
08/30/2021 05:4519-0.08
08/30/2021 04:4520-0.07
08/30/2021 03:4519-0.08
08/29/2021 23:4519-0.08
08/29/2021 22:4520-0.07
08/29/2021 21:4521-0.06
08/29/2021 16:45 -0.06
08/29/2021 15:45 -0.05
08/29/2021 08:4521-0.05
08/29/2021 07:4522-0.04
08/28/2021 21:4522-0.04
08/28/2021 20:4523-0.03
08/28/2021 19:4523-0.03
08/28/2021 18:4524-0.02
08/28/2021 14:45 -0.02
08/28/2021 13:45 -0.01
08/28/2021 12:45 -0.02
08/28/2021 11:45 -0.01
08/28/2021 10:45 -0.02
08/28/2021 09:4524-0.02
08/28/2021 08:4523-0.03
08/28/2021 06:4523-0.03
08/28/2021 05:4522-0.04
08/28/2021 01:4522-0.04
08/28/2021 00:4521-0.05
08/27/2021 23:4522-0.04
08/27/2021 22:4521-0.05
08/27/2021 21:4522-0.04
08/27/2021 20:4523-0.03
08/27/2021 19:4524-0.02
08/27/2021 18:45 -0.02
08/27/2021 17:4524-0.01
08/27/2021 16:45250
08/27/2021 14:45250
08/27/2021 13:45260.01
08/27/2021 12:45260.01
08/27/2021 11:45250
08/27/2021 10:45260.01
08/27/2021 09:45250
08/27/2021 08:45250
08/27/2021 07:4524-0.02
08/27/2021 06:4523-0.03
08/27/2021 05:4523-0.03
08/27/2021 04:4522-0.04
08/27/2021 03:4522-0.04
08/27/2021 02:4523-0.03
08/27/2021 01:4523-0.03
08/27/2021 00:4522-0.04
08/26/2021 23:4522-0.04
08/26/2021 22:4521-0.05
08/26/2021 21:4522-0.04
08/26/2021 20:4523-0.03
08/26/2021 18:4523-0.03
08/26/2021 17:4522-0.04
08/26/2021 16:4521-0.05
08/26/2021 15:45 -0.05
08/26/2021 14:4521-0.06
08/26/2021 13:4520-0.07
08/26/2021 10:4520-0.07
08/26/2021 09:4521-0.06
08/26/2021 08:45 -0.05
08/26/2021 07:4521-0.05
08/26/2021 06:4523-0.03
08/26/2021 05:4524-0.02
08/26/2021 04:45 -0.02
08/26/2021 03:45 -0.01
08/26/2021 01:4524-0.01
08/26/2021 00:45250
08/25/2021 22:45250
08/25/2021 21:45270.02
08/25/2021 20:45290.04
08/25/2021 19:45300.06
08/25/2021 18:45320.08
08/25/2021 17:45340.1
08/25/2021 16:45360.12
08/25/2021 15:45380.14
08/25/2021 14:45410.17
08/25/2021 13:45430.19
08/25/2021 12:45460.22
08/25/2021 11:45480.24
08/25/2021 10:45490.25
08/25/2021 08:45490.25
08/25/2021 07:45480.24
08/25/2021 06:45470.23
08/25/2021 05:45480.24
08/25/2021 04:45470.23
08/25/2021 02:45470.23
08/25/2021 01:45460.22
08/24/2021 22:45460.22
08/24/2021 21:45470.23
08/24/2021 20:45470.23
08/24/2021 19:45460.22
08/24/2021 17:45460.22
08/24/2021 16:45480.24
08/24/2021 15:45490.25
08/24/2021 14:45500.26
08/24/2021 13:45500.26
08/24/2021 12:45490.25
08/24/2021 11:45480.24
08/24/2021 09:45480.24
08/24/2021 08:45500.26
08/24/2021 06:45500.26
08/24/2021 05:45490.25
08/24/2021 04:45480.24
08/24/2021 03:45480.24
08/24/2021 02:45470.23
08/24/2021 01:45480.24
08/23/2021 21:45480.24
08/23/2021 20:45490.25
08/23/2021 16:45490.25
08/23/2021 15:45480.24
08/23/2021 13:45480.24
08/23/2021 12:45490.25
08/23/2021 11:45500.26
08/23/2021 10:45490.25
08/23/2021 08:45490.25
08/23/2021 07:45470.23
08/23/2021 06:45470.23
08/23/2021 05:45480.24
08/23/2021 02:45480.24
08/23/2021 01:45460.22
08/23/2021 00:45460.22
08/22/2021 23:45450.21
08/22/2021 20:45450.21
08/22/2021 19:45460.22

Start Stop